Flag for U.S.A. Weather past 2 weeks in Helena, Montana, U.S.A.

Now
83 °F

Sunny.


Feels Like: 80 °F
Forecast: 47 / 84 °F
Wind: 5 mph from Northeast

Location: Helena Regional Airport

Current Time: Sep 1, 2015 at 3:18:39 PM

Latest Report: Sep 1, 2015 at 2:53 PM


Visibility: 10 mi

Pressure: 29.79 "Hg (25.89 "Hg at 1239m altitude)

Humidity: 19%

Dew point: 36 °F

Location of HelenaLocation

Historic Weather in Helena — Graph

°F

Helena temperature yesterday

Maximum temperature yesterday: 80 °F (at 3:53 PM)
Minimum temperature yesterday: 53 °F (at 12:53 AM)
Average temperature yesterday: 65 °F

Past Weeks' High & Low Weather Summary

 TemperatureHumidityPressure
High93 °F (Aug 25, 4:53 PM)82% (Aug 22, 1:53 AM)30.34 "Hg (Aug 22, 1:53 AM)
Low42 °F (Aug 23, 5:53 AM)11% (Aug 26, 4:53 PM)29.62 "Hg (Aug 21, 12:53 PM)
Average67 °F40%29.97 "Hg
* Reported Aug 17 1:53 PM — Sep 1 1:53 PM, Helena, Weather by CustomWeather, © 2015

Note: Actual official high and low records may vary slightly from our data, if they occured in-between our weather recording intervals... More about our weather records

Advertising

Helena weather history for previous 24 hours

 ConditionsComfort  
Time TempWeatherWind HumidityBarometerVisibility
1:53 PM
Tue, Sep 1
80 °FSunny.10 mph21%29.81 "Hg10 mi
12:53 PM78 °FSunny.8 mph24%29.85 "Hg10 mi
11:53 AM74 °FSunny.7 mph31%29.86 "Hg10 mi
10:53 AM68 °FSunny.5 mph39%29.90 "Hg10 mi
9:53 AM63 °FSunny.No wind45%29.91 "Hg10 mi
8:53 AM57 °FSunny.No wind55%29.92 "Hg10 mi
7:53 AM52 °FSunny.No wind64%29.91 "Hg10 mi
6:53 AM50 °FClear.3 mph68%29.91 "Hg10 mi
5:53 AM50 °FClear.3 mph68%29.89 "Hg10 mi
4:53 AM52 °FClear.No wind64%29.87 "Hg10 mi
3:53 AM56 °FClear.No wind53%29.87 "Hg10 mi
2:53 AM57 °FClear.No wind51%29.87 "Hg10 mi
1:53 AM57 °FClear.No wind51%29.88 "Hg10 mi
12:53 AM60 °FClear.10 mph46%29.88 "Hg10 mi
11:53 PM
Mon, Aug 31
63 °FClear.6 mph41%29.89 "Hg10 mi
10:53 PM62 °FClear.No wind43%29.87 "Hg10 mi
8:53 PM68 °FSunny.12 mph35%29.87 "Hg10 mi
7:53 PM73 °FSunny.12 mph28%29.84 "Hg10 mi
6:53 PM77 °FSunny.15 mph24%29.85 "Hg10 mi
5:53 PM78 °FSunny.15 mph23%29.86 "Hg10 mi
4:53 PM80 °FSunny.18 mph20%29.86 "Hg10 mi
3:53 PM80 °FSunny.14 mph20%29.87 "Hg10 mi
Weather by CustomWeather, © 2015

See weather overviewHow to use our weather pages